When you browse on this site, cookies collect data to enhance your experience and personalize the content and advertising you see.
Visit our Privacy Policy to learn more. By continuing to use the site, you agree to this use of cookies and data.
  • In France
  • List of Countries
  • For 7 days
  • Water Temperature
  • Satellite Maps
  • Weather Map
  • Weather Widgets
  • user-avatar
    Login

    Hourly Weather La Paz

    Today, 21 March, Thursday

    Time Temperature Precipitation Wind Pressure Humidity
    00:00 +6°C° 0.7 mm 2 mps 474 mmHg 92%
    01:00 +7°C° 0 mm 1 mps 474 mmHg 93%
    02:00 +7°C° 1.2 mm 1 mps 474 mmHg 93%
    03:00 +7°C° 1.2 mm 1 mps 474 mmHg 92%
    04:00 +7°C° 1.2 mm 1 mps 473 mmHg 92%
    05:00 +7°C° 1.3 mm 1 mps 474 mmHg 91%
    06:00 +7°C° 1.3 mm 1 mps 474 mmHg 90%
    07:00 +7°C° 1.3 mm 1 mps 474 mmHg 88%
    08:00 +8°C° 0.6 mm 1 mps 475 mmHg 83%
    09:00 +9°C° 0.6 mm 1 mps 475 mmHg 78%
    10:00 +10°C° 0.6 mm 1 mps 476 mmHg 73%
    11:00 +11°C° 0.1 mm 1 mps 476 mmHg 70%
    12:00 +12°C° 0.1 mm 1 mps 476 mmHg 67%
    13:00 +12°C° 0.1 mm 1 mps 476 mmHg 64%
    14:00 +12°C° 0.1 mm 2 mps 475 mmHg 65%
    15:00 +12°C° 0.1 mm 2 mps 475 mmHg 65%
    16:00 +12°C° 0.1 mm 2 mps 474 mmHg 65%
    17:00 +10°C° 0.1 mm 2 mps 474 mmHg 71%
    18:00 +9°C° 0.1 mm 2 mps 474 mmHg 77%
    19:00 +8°C° 0.1 mm 2 mps 473 mmHg 83%
    20:00 +8°C° 0.1 mm 2 mps 474 mmHg 82%
    21:00 +9°C° 0.1 mm 1 mps 474 mmHg 82%
    22:00 +9°C° 0.1 mm 1 mps 475 mmHg 82%
    23:00 +9°C° 0.1 mm 1 mps 474 mmHg 83%

    Tomorrow, 22 March, Friday

    Time Temperature Precipitation Wind Pressure Humidity
    00:00 +8°C° 0.1 mm 2 mps 474 mmHg 83%
    01:00 +7°C° 0.1 mm 2 mps 474 mmHg 84%
    02:00 +8°C° 0 mm 1 mps 473 mmHg 86%
    03:00 +7°C° 0 mm 1 mps 473 mmHg 88%
    04:00 +7°C° 0 mm 1 mps 472 mmHg 90%
    05:00 +7°C° 0 mm 1 mps 473 mmHg 86%
    06:00 +7°C° 0 mm 0 mps 474 mmHg 82%
    07:00 +7°C° 0 mm 0 mps 475 mmHg 79%
    08:00 +9°C° 0 mm 0 mps 475 mmHg 71%
    09:00 +11°C° 0 mm 1 mps 476 mmHg 64%
    10:00 +12°C° 0 mm 1 mps 477 mmHg 57%
    11:00 +13°C° 0.1 mm 2 mps 477 mmHg 58%
    12:00 +13°C° 0.1 mm 2 mps 476 mmHg 59%
    13:00 +13°C° 0.1 mm 3 mps 476 mmHg 60%
    14:00 +12°C° 0.2 mm 3 mps 475 mmHg 63%
    15:00 +12°C° 0.2 mm 3 mps 475 mmHg 66%
    16:00 +11°C° 0.2 mm 3 mps 474 mmHg 69%
    17:00 +10°C° 0 mm 3 mps 474 mmHg 74%
    18:00 +9°C° 0 mm 3 mps 474 mmHg 80%
    19:00 +8°C° 0 mm 3 mps 473 mmHg 85%
    20:00 +8°C° 0 mm 3 mps 474 mmHg 86%
    21:00 +7°C° 0 mm 3 mps 474 mmHg 87%
    22:00 +7°C° 0 mm 3 mps 474 mmHg 87%
    23:00 +7°C° 0 mm 3 mps 474 mmHg 87%

    Day after tomorrow, 23 March, Saturday

    Time Temperature Precipitation Wind Pressure Humidity
    00:00 +7°C° 0 mm 2 mps 474 mmHg 86%
    01:00 +6°C° 0 mm 2 mps 474 mmHg 86%
    02:00 +6°C° 0 mm 2 mps 474 mmHg 87%
    03:00 +7°C° 0 mm 1 mps 473 mmHg 87%
    04:00 +6°C° 0 mm 1 mps 473 mmHg 88%
    05:00 +7°C° 0 mm 1 mps 474 mmHg 86%
    06:00 +7°C° 0 mm 1 mps 474 mmHg 83%
    07:00 +7°C° 0 mm 0 mps 475 mmHg 80%
    08:00 +9°C° 0 mm 1 mps 476 mmHg 75%
    09:00 +10°C° 0 mm 1 mps 477 mmHg 69%
    10:00 +12°C° 0 mm 1 mps 477 mmHg 63%
    11:00 +12°C° 0.1 mm 2 mps 477 mmHg 63%
    12:00 +12°C° 0.1 mm 2 mps 476 mmHg 63%
    13:00 +12°C° 0.1 mm 2 mps 476 mmHg 63%
    14:00 +12°C° 0.1 mm 3 mps 475 mmHg 64%
    15:00 +12°C° 0.1 mm 3 mps 475 mmHg 65%
    16:00 +12°C° 0.1 mm 3 mps 475 mmHg 65%
    17:00 +10°C° 0 mm 3 mps 474 mmHg 72%
    18:00 +9°C° 0 mm 3 mps 474 mmHg 79%
    19:00 +7°C° 0 mm 4 mps 474 mmHg 86%
    20:00 +8°C° 0 mm 3 mps 474 mmHg 87%
    21:00 +7°C° 0 mm 3 mps 475 mmHg 89%
    22:00 +7°C° 0 mm 3 mps 475 mmHg 90%
    23:00 +7°C° 0 mm 2 mps 474 mmHg 90%

    24 March, Sunday

    Time Temperature Precipitation Wind Pressure Humidity
    00:00 +8°C° 0 mm 1 mps 474 mmHg 90%
    01:00 +7°C° 0 mm 1 mps 474 mmHg 90%
    02:00 +7°C° 0 mm 1 mps 473 mmHg 90%
    03:00 +7°C° 0 mm 1 mps 473 mmHg 90%
    04:00 +6°C° 0 mm 1 mps 472 mmHg 91%
    05:00 +7°C° 0 mm 1 mps 473 mmHg 86%
    06:00 +7°C° 0 mm 0 mps 474 mmHg 82%
    07:00 +7°C° 0 mm 0 mps 475 mmHg 78%
    08:00 +10°C° 0 mm 1 mps 475 mmHg 71%
    09:00 +11°C° 0 mm 1 mps 476 mmHg 64%
    10:00 +13°C° 0 mm 2 mps 477 mmHg 57%
    11:00 +13°C° 0.1 mm 2 mps 477 mmHg 59%
    12:00 +12°C° 0.1 mm 3 mps 476 mmHg 60%
    13:00 +12°C° 0.1 mm 3 mps 475 mmHg 62%
    14:00 +12°C° 0.3 mm 3 mps 475 mmHg 63%
    15:00 +12°C° 0.3 mm 3 mps 475 mmHg 65%
    16:00 +12°C° 0.3 mm 4 mps 474 mmHg 66%
    17:00 +11°C° 0.3 mm 4 mps 474 mmHg 72%
    18:00 +10°C° 0.3 mm 4 mps 474 mmHg 78%
    19:00 +7°C° 0.3 mm 4 mps 474 mmHg 84%
    20:00 +8°C° 0.1 mm 3 mps 474 mmHg 85%
    21:00 +8°C° 0.1 mm 3 mps 475 mmHg 86%
    22:00 +8°C° 0.1 mm 3 mps 475 mmHg 87%
    23:00 +7°C° 0.3 mm 3 mps 474 mmHg 88%

    25 March, Monday

    Time Temperature Precipitation Wind Pressure Humidity
    00:00 +7°C° 0.3 mm 2 mps 474 mmHg 88%
    01:00 +7°C° 0.3 mm 2 mps 473 mmHg 89%
    02:00 +7°C° 0.9 mm 1 mps 473 mmHg 89%
    03:00 +7°C° 0.9 mm 1 mps 473 mmHg 89%
    04:00 +6°C° 0.9 mm 0 mps 473 mmHg 89%
    05:00 +7°C° 1.7 mm 1 mps 473 mmHg 88%
    06:00 +7°C° 1.7 mm 1 mps 473 mmHg 88%
    07:00 +7°C° 1.7 mm 1 mps 474 mmHg 88%
    08:00 +8°C° 2.2 mm 1 mps 474 mmHg 86%
    09:00 +7°C° 2.2 mm 2 mps 474 mmHg 84%
    10:00 +7°C° 2.2 mm 2 mps 474 mmHg 83%
    11:00 +8°C° 1.8 mm 2 mps 474 mmHg 81%
    12:00 +8°C° 1.8 mm 2 mps 474 mmHg 79%
    13:00 +8°C° 1.8 mm 3 mps 473 mmHg 77%
    14:00 +8°C° 0.5 mm 3 mps 473 mmHg 76%
    15:00 +9°C° 0.5 mm 3 mps 473 mmHg 75%
    16:00 +8°C° 0.5 mm 4 mps 473 mmHg 75%
    17:00 +7°C° 0.1 mm 4 mps 473 mmHg 80%
    18:00 +6°C° 0.1 mm 4 mps 472 mmHg 86%
    19:00 +5°C° 0.1 mm 4 mps 472 mmHg 91%
    20:00 +5°C° 0.1 mm 3 mps 473 mmHg 91%
    21:00 +6°C° 0.1 mm 2 mps 473 mmHg 91%
    22:00 +6°C° 0.1 mm 2 mps 473 mmHg 92%
    23:00 +6°C° 0.5 mm 2 mps 473 mmHg 91%

    26 March, Tuesday

    Time Temperature Precipitation Wind Pressure Humidity
    00:00 +7°C° 0.5 mm 1 mps 473 mmHg 91%
    01:00 +6°C° 0.5 mm 1 mps 473 mmHg 91%
    02:00 +6°C° 0.7 mm 1 mps 472 mmHg 91%
    03:00 +6°C° 0.7 mm 1 mps 472 mmHg 92%
    04:00 +6°C° 0.7 mm 1 mps 472 mmHg 93%
    05:00 +6°C° 1.3 mm 1 mps 472 mmHg 92%
    06:00 +5°C° 1.3 mm 2 mps 473 mmHg 90%
    07:00 +5°C° 1.3 mm 2 mps 474 mmHg 89%
    08:00 +6°C° 1.4 mm 2 mps 474 mmHg 86%
    09:00 +7°C° 1.4 mm 2 mps 474 mmHg 84%
    10:00 +7°C° 1.4 mm 2 mps 475 mmHg 81%
    11:00 +8°C° 1.1 mm 3 mps 475 mmHg 79%
    12:00 +8°C° 1.1 mm 3 mps 474 mmHg 76%
    13:00 +9°C° 1.1 mm 3 mps 474 mmHg 74%
    14:00 +8°C° 0.7 mm 3 mps 474 mmHg 76%
    15:00 +7°C° 0.7 mm 4 mps 473 mmHg 77%
    16:00 +7°C° 0.7 mm 4 mps 473 mmHg 79%
    17:00 +6°C° 0.1 mm 4 mps 473 mmHg 83%
    18:00 +5°C° 0.1 mm 4 mps 473 mmHg 87%
    19:00 +4°C° 0.1 mm 3 mps 473 mmHg 91%
    20:00 +4°C° 0.2 mm 3 mps 473 mmHg 92%
    21:00 +4°C° 0.2 mm 3 mps 473 mmHg 93%
    22:00 +4°C° 0.2 mm 3 mps 474 mmHg 94%
    23:00 +5°C° 0.2 mm 2 mps 473 mmHg 94%
    Show more